User: anonymous   Login
Location: Colossi of Memnon
(25.7167°N, 32.6167°E)
Time: 17:29:44
(UTC+00:00)
Language:

N. Korean satellite - Orbit

View from above orbital plane
View from above orbital plane
View from above satellite
View from above satellite

Ground track
Ground track

The orbit data is extracted from the following two-line orbital elements,

1 39026U 12072A   21288.97582482  .00005500  00000-0  18278-3 0  9997
2 39026  97.2539 279.0211 0033342 316.9739  42.8896 15.31062340491525
Epoch (UTC): 15 October 2021 23:25:11
Eccentricity: 0.0033342
inclination: 97.2539°
perigee height: 450 km
apogee height: 495 km
right ascension of ascending node: 279.0211°
argument of perigee: 316.9739°
revolutions per day: 15.31062340
mean anomaly at epoch: 42.8896°
orbit number at epoch: 49152

The dashed part of the orbit path shows where the satellite is in the earth's shadow,  

DLR